This is the latest recevied weather packets stored in our database for station/object DG7VM-13. If no packets are shown the sender has not sent any weather packets the latest 10 day(s).
| Time | Temp. | Humidity | Pressure | Rain* | Wind** | Luminosity | Snow |
|---|---|---|---|---|---|---|---|
| 1777973527 | 20° C | 57% | 1005.9 hPa | - | - | - | - |
| 1777973227 | 20° C | 57% | 1005.9 hPa | - | - | - | - |
| 1777972926 | 20° C | 57% | 1005.9 hPa | - | - | - | - |
| 1777972628 | 20° C | 58% | 1005.9 hPa | - | - | - | - |
| 1777972326 | 20° C | 59% | 1005.9 hPa | - | - | - | - |
| 1777972026 | 20° C | 58% | 1005.9 hPa | - | - | - | - |
| 1777971726 | 19.44° C | 59% | 1005.9 hPa | - | - | - | - |
| 1777971425 | 19.44° C | 60% | 1005.9 hPa | - | - | - | - |
| 1777971126 | 19.44° C | 60% | 1005.9 hPa | - | - | - | - |
| 1777970826 | 19.44° C | 65% | 1005.9 hPa | - | - | - | - |
| 1777970528 | 18.89° C | 69% | 1005.9 hPa | - | - | - | - |
| 1777970225 | 18.33° C | 71% | 1005.9 hPa | - | - | - | - |
| 1777969926 | 18.33° C | 72% | 1005.9 hPa | - | - | - | - |
| 1777969626 | 17.78° C | 72% | 1005.9 hPa | - | - | - | - |
| 1777969327 | 17.22° C | 74% | 1005.9 hPa | - | - | - | - |
| 1777969026 | 17.22° C | 74% | 1005.9 hPa | - | - | - | - |
| 1777968726 | 17.22° C | 74% | 1005.9 hPa | - | - | - | - |
| 1777968426 | 16.67° C | 75% | 1005.9 hPa | - | - | - | - |
| 1777968127 | 16.67° C | 75% | 1005.9 hPa | - | - | - | - |
| 1777967826 | 16.11° C | 75% | 1005.9 hPa | - | - | - | - |
| 1777967525 | 16.11° C | 76% | 1005.9 hPa | - | - | - | - |
| 1777967226 | 15.56° C | 77% | 1005.9 hPa | - | - | - | - |
| 1777966925 | 15.56° C | 77% | 1005.9 hPa | - | - | - | - |
| 1777966625 | 15.56° C | 77% | 1006.9 hPa | - | - | - | - |
| 1777966326 | 15° C | 77% | 1006.9 hPa | - | - | - | - |
* Rain since midnight (hover to see other rain measurements)
** Current wind speed in m/s (hover to see current wind gust speed)